Terminal Aerodrome Forecast
Issued by NWS Raleigh/Durham, NC

Home | Current Version | Previous Version | Text Only | Print | Product List | Glossary On
Versions: 1 2 3 4 5 6 7 8 9 10 11 12 13 14 15 16 17 18 19 20 21 22 23 24 25 26 27 28 29 30 31 32 33 34 35 36 37 38 39 40 41 42 43 44 45 46 47 48 49
000
FTUS42 KRAH 042126 AAA
TAFRDU
TAF AMD
KRDU 042126Z 0421/0518 VRB03KT P6SM VCSH FEW040 SCT070 BKN150
     FM050100 07006KT P6SM BKN100
     FM051000 04007KT 4SM BR OVC007
     FM051500 05009KT P6SM OVC015=

USA.gov is the U.S. government's official web portal to all federal, state and local government web resources and services.